QPF
0.00 0.00 0.00 0.01 0.01 0.00 0.00 0.00 0.00 0.01 0.01 0.01 0.02 0.02 0.02 0.03 0.04 0.03 0.02 0.03 0.04 0.05 0.04 0.04 0.03 0.03 0.04 0.05 0.05 0.06 0.04 0.04 0.03 0.04 0.04 0.05 0.06 0.06 0.04 0.04 0.05 0.06 0.08 0.09
0.00 0.00 0.00 0.00 0.00 0.00 0.00 0.00 0.00 0.00 0.01 0.01 0.02 0.02 0.03 0.07 0.07 0.04 0.03 0.02 0.03 0.04 0.04 0.04 0.04 0.04 0.03 0.05 0.08 0.12 0.09 0.06 0.05 0.05 0.05 0.06 0.06 0.05 0.04 0.03 0.04 0.04 0.06 0.07
0.00 0.00 0.00 0.00 0.00 0.00 0.00 0.00 0.00 0.00 0.01 0.01 0.02 0.02 0.04 0.05 0.03 0.02 0.01 0.02 0.02 0.03 0.02 0.01 0.01 0.02 0.02 0.06 0.10 0.11 0.09 0.07 0.05 0.05 0.05 0.05 0.06 0.06 0.05 0.04 0.03 0.03 0.05 0.06
0.00 0.00 0.00 0.00 0.00 0.00 0.00 0.00 0.00 0.00 0.01 0.01 0.02 0.02 0.02 0.02 0.01 0.01 0.01 0.02 0.02 0.02 0.01 0.01 0.01 0.02 0.02 0.02 0.04 0.04 0.03 0.03 0.03 0.04 0.05 0.04 0.04 0.06 0.07 0.06 0.03 0.03 0.04 0.05
0.00 0.00 0.00 0.00 0.00 0.00 0.00 0.00 0.00 0.00 0.01 0.01 0.01 0.01 0.01 0.01 0.01 0.01 0.01 0.02 0.01 0.01 0.01 0.01 0.01 0.02 0.02 0.02 0.03 0.02 0.01 0.01 0.02 0.03 0.05 0.04 0.05 0.08 0.07 0.07 0.04 0.02 0.03 0.04
0.00 0.00 0.00 0.00 0.00 0.00 0.00 0.00 0.00 0.01 0.01 0.01 0.01 0.01 0.01 0.02 0.02 0.01 0.01 0.01 0.01 0.01 0.01 0.01 0.02 0.02 0.01 0.02 0.02 0.02 0.01 0.01 0.02 0.03 0.04 0.04 0.04 0.06 0.06 0.05 0.04 0.02 0.02 0.03
0.00 0.00 0.00 0.00 0.00 0.00 0.00 0.00 0.00 0.00 0.00 0.00 0.01 0.01 0.04 0.04 0.05 0.05 0.02 0.01 0.02 0.02 0.02 0.02 0.01 0.01 0.01 0.01 0.01 0.01 0.01 0.01 0.02 0.03 0.04 0.04 0.03 0.03 0.04 0.03 0.02 0.02 0.02 0.03
0.00 0.00 0.00 0.00 0.00 0.00 0.00 0.00 0.00 0.00 0.00 0.00 0.01 0.03 0.05 0.05 0.05 0.04 0.03 0.02 0.02 0.02 0.01 0.01 0.01 0.00 0.01 0.01 0.01 0.01 0.01 0.02 0.03 0.04 0.03 0.02 0.01 0.01 0.02 0.03 0.03 0.03 0.03 0.03
0.00 0.00 0.00 0.00 0.00 0.00 0.00 0.00 0.00 0.00 0.00 0.00 0.01 0.02 0.02 0.03 0.02 0.01 0.01 0.01 0.01 0.01 0.01 0.00 0.00 0.00 0.01 0.01 0.01 0.01 0.01 0.02 0.03 0.03 0.02 0.02 0.01 0.01 0.02 0.03 0.04 0.04 0.04 0.02
0.00 0.00 0.00 0.00 0.00 0.00 0.00 0.00 0.00 0.00 0.00 0.00 0.01 0.02 0.02 0.02 0.01 0.01 0.00 0.00 0.00 0.01 0.01 0.00 0.00 0.01 0.01 0.01 0.01 0.01 0.01 0.02 0.04 0.03 0.02 0.02 0.02 0.03 0.03 0.03 0.04 0.03 0.02 0.01
0.00 0.00 0.00 0.00 0.00 0.00 0.00 0.00 0.00 0.00 0.00 0.00 0.00 0.01 0.01 0.01 0.01 0.00 0.01 0.01 0.00 0.00 0.01 0.01 0.02 0.02 0.01 0.01 0.02 0.02 0.02 0.03 0.07 0.07 0.05 0.03 0.03 0.04 0.04 0.03 0.04 0.03 0.01 0.00
0.00 0.01 0.00 0.00 0.00 0.00 0.00 0.00 0.00 0.00 0.00 0.00 0.00 0.01 0.01 0.01 0.01 0.01 0.01 0.01 0.01 0.01 0.01 0.01 0.02 0.02 0.02 0.02 0.03 0.04 0.06 0.06 0.08 0.06 0.05 0.04 0.03 0.03 0.03 0.03 0.05 0.03 0.01 0.00
0.00 0.01 0.01 0.01 0.00 0.00 0.00 0.00 0.01 0.01 0.00 0.00 0.01 0.01 0.01 0.01 0.01 0.01 0.01 0.01 0.01 0.01 0.01 0.02 0.04 0.07 0.05 0.04 0.04 0.04 0.05 0.04 0.03 0.03 0.04 0.04 0.02 0.01 0.02 0.04 0.03 0.01 0.01 0.01
0.00 0.01 0.01 0.01 0.00 0.00 0.00 0.00 0.01 0.01 0.01 0.00 0.00 0.00 0.01 0.01 0.01 0.02 0.02 0.02 0.02 0.01 0.01 0.02 0.05 0.07 0.05 0.04 0.04 0.03 0.02 0.01 0.01 0.01 0.01 0.01 0.01 0.01 0.02 0.02 0.01 0.01 0.01 0.01
0.01 0.01 0.01 0.01 0.01 0.01 0.01 0.00 0.01 0.01 0.01 0.01 0.00 0.00 0.01 0.02 0.02 0.03 0.03 0.02 0.01 0.01 0.02 0.02 0.02 0.03 0.03 0.03 0.02 0.01 0.01 0.01 0.01 0.01 0.01 0.00 0.00 0.00 0.01 0.01 0.02 0.02 0.01 0.00
0.00 0.00 0.00 0.00 0.01 0.01 0.01 0.01 0.01 0.02 0.02 0.01 0.01 0.01 0.02 0.03 0.03 0.03 0.02 0.01 0.01 0.01 0.01 0.01 0.02 0.02 0.02 0.02 0.01 0.01 0.01 0.01 0.01 0.00 0.00 0.00 0.00 0.00 0.00 0.01 0.02 0.02 0.01 0.01
0.00 0.00 0.00 0.00 0.00 0.01 0.01 0.01 0.02 0.02 0.03 0.03 0.02 0.02 0.03 0.02 0.02 0.01 0.01 0.01 0.01 0.01 0.01 0.01 0.02 0.03 0.03 0.02 0.01 0.01 0.01 0.01 0.00 0.00 0.00 0.00 0.01 0.01 0.01 0.01 0.01 0.01 0.01 0.01
0.01 0.01 0.01 0.00 0.01 0.01 0.01 0.01 0.02 0.03 0.03 0.04 0.04 0.03 0.03 0.02 0.02 0.01 0.01 0.01 0.01 0.01 0.01 0.01 0.02 0.03 0.03 0.02 0.01 0.01 0.00 0.00 0.00 0.00 0.01 0.01 0.01 0.01 0.02 0.01 0.01 0.01 0.01 0.01
0.03 0.02 0.02 0.02 0.03 0.02 0.01 0.01 0.01 0.02 0.02 0.02 0.03 0.04 0.04 0.03 0.03 0.01 0.01 0.01 0.01 0.01 0.01 0.01 0.02 0.02 0.02 0.02 0.01 0.01 0.01 0.00 0.00 0.01 0.01 0.01 0.01 0.01 0.01 0.01 0.01 0.01 0.01 0.01
0.01 0.02 0.01 0.02 0.02 0.02 0.01 0.01 0.01 0.01 0.01 0.01 0.02 0.03 0.04 0.05 0.04 0.02 0.01 0.01 0.01 0.01 0.02 0.01 0.01 0.01 0.01 0.02 0.01 0.01 0.01 0.01 0.02 0.02 0.02 0.02 0.01 0.01 0.01 0.01 0.01 0.01 0.01 0.01
0.00 0.01 0.01 0.01 0.01 0.01 0.01 0.00 0.00 0.01 0.01 0.01 0.01 0.01 0.02 0.03 0.05 0.04 0.02 0.02 0.02 0.02 0.03 0.02 0.01 0.01 0.01 0.01 0.01 0.01 0.01 0.02 0.03 0.03 0.02 0.02 0.01 0.01 0.01 0.01 0.01 0.01 0.01 0.00
0.00 0.01 0.01 0.01 0.01 0.01 0.01 0.01 0.01 0.01 0.00 0.00 0.00 0.00 0.01 0.01 0.02 0.04 0.04 0.03 0.02 0.03 0.03 0.03 0.02 0.01 0.01 0.01 0.01 0.01 0.02 0.03 0.03 0.02 0.02 0.02 0.01 0.01 0.01 0.01 0.01 0.01 0.01 0.00
0.00 0.00 0.01 0.01 0.01 0.01 0.01 0.01 0.01 0.01 0.01 0.00 0.00 0.00 0.01 0.01 0.01 0.01 0.02 0.03 0.03 0.03 0.03 0.03 0.02 0.01 0.01 0.01 0.01 0.01 0.01 0.01 0.01 0.01 0.01 0.01 0.01 0.01 0.01 0.02 0.02 0.01 0.01 0.01
0.00 0.01 0.01 0.01 0.01 0.01 0.01 0.01 0.01 0.01 0.01 0.00 0.00 0.00 0.00 0.00 0.00 0.00 0.00 0.01 0.02 0.02 0.02 0.03 0.02 0.02 0.01 0.00 0.00 0.01 0.01 0.01 0.01 0.01 0.01 0.01 0.01 0.01 0.01 0.01 0.01 0.01 0.01 0.01
0.01 0.01 0.01 0.01 0.02 0.01 0.01 0.01 0.01 0.01 0.00 0.00 0.01 0.00 0.00 0.00 0.00 0.00 0.00 0.00 0.00 0.01 0.02 0.02 0.02 0.02 0.01 0.01 0.01 0.01 0.00 0.00 0.01 0.01 0.01 0.01 0.01 0.01 0.01 0.01 0.01 0.01 0.00 0.00
0.01 0.01 0.01 0.01 0.01 0.01 0.01 0.01 0.01 0.01 0.01 0.01 0.01 0.01 0.00 0.00 0.00 0.00 0.00 0.00 0.00 0.01 0.01 0.01 0.01 0.01 0.02 0.02 0.02 0.02 0.01 0.00 0.01 0.01 0.01 0.01 0.01 0.01 0.01 0.01 0.01 0.01 0.00 0.00
MSLP
1013.33 1013.95 1014.36 1014.59 1014.70 1014.76 1014.82 1014.89 1014.98 1015.02 1014.98 1014.80 1014.46 1013.94 1013.28 1012.53 1011.79 1011.10 1010.53 1010.12 1009.85 1009.72 1009.69 1009.70 1009.74 1009.77 1009.80 1009.83 1009.89 1009.98 1010.12 1010.28 1010.46 1010.63 1010.75 1010.83 1010.85 1010.83 1010.81 1010.82 1010.93 1011.14 1011.49 1011.96
1014.14 1014.62 1014.88 1014.96 1014.95 1014.94 1014.98 1015.09 1015.24 1015.35 1015.36 1015.20 1014.81 1014.19 1013.39 1012.49 1011.57 1010.75 1010.09 1009.64 1009.39 1009.31 1009.36 1009.45 1009.54 1009.60 1009.62 1009.63 1009.64 1009.68 1009.77 1009.93 1010.11 1010.30 1010.47 1010.57 1010.60 1010.58 1010.52 1010.49 1010.53 1010.69 1011.00 1011.46
1014.61 1014.95 1015.05 1015.02 1014.94 1014.92 1015.01 1015.20 1015.45 1015.67 1015.74 1015.58 1015.13 1014.41 1013.45 1012.36 1011.27 1010.31 1009.56 1009.07 1008.84 1008.83 1008.96 1009.15 1009.32 1009.43 1009.46 1009.44 1009.41 1009.40 1009.45 1009.58 1009.77 1009.99 1010.19 1010.33 1010.40 1010.39 1010.33 1010.28 1010.28 1010.40 1010.67 1011.10
1014.75 1014.93 1014.91 1014.81 1014.72 1014.76 1014.95 1015.29 1015.68 1016.02 1016.17 1016.02 1015.51 1014.66 1013.53 1012.25 1010.97 1009.85 1009.00 1008.47 1008.26 1008.32 1008.55 1008.84 1009.10 1009.26 1009.32 1009.29 1009.21 1009.15 1009.16 1009.26 1009.44 1009.67 1009.91 1010.11 1010.24 1010.27 1010.24 1010.19 1010.18 1010.27 1010.51 1010.91
1014.62 1014.66 1014.55 1014.41 1014.38 1014.52 1014.87 1015.39 1015.97 1016.44 1016.67 1016.53 1015.96 1014.98 1013.67 1012.19 1010.72 1009.44 1008.48 1007.91 1007.71 1007.83 1008.15 1008.54 1008.89 1009.13 1009.21 1009.17 1009.06 1008.95 1008.91 1008.96 1009.12 1009.37 1009.64 1009.90 1010.10 1010.20 1010.23 1010.22 1010.23 1010.31 1010.52 1010.87
1014.33 1014.25 1014.08 1013.96 1014.01 1014.30 1014.84 1015.56 1016.31 1016.92 1017.22 1017.09 1016.45 1015.34 1013.86 1012.20 1010.55 1009.12 1008.05 1007.43 1007.24 1007.41 1007.81 1008.30 1008.74 1009.03 1009.16 1009.12 1008.97 1008.81 1008.70 1008.70 1008.84 1009.08 1009.39 1009.70 1009.97 1010.16 1010.27 1010.33 1010.37 1010.47 1010.66 1010.99
1013.99 1013.81 1013.62 1013.55 1013.71 1014.16 1014.87 1015.76 1016.67 1017.39 1017.75 1017.60 1016.90 1015.67 1014.05 1012.22 1010.42 1008.87 1007.71 1007.04 1006.86 1007.07 1007.54 1008.11 1008.63 1008.98 1009.14 1009.11 1008.94 1008.72 1008.56 1008.51 1008.60 1008.83 1009.15 1009.52 1009.87 1010.15 1010.35 1010.48 1010.58 1010.71 1010.90 1011.20
1013.66 1013.44 1013.26 1013.26 1013.52 1014.10 1014.96 1015.97 1016.97 1017.75 1018.12 1017.94 1017.17 1015.85 1014.12 1012.18 1010.28 1008.64 1007.43 1006.74 1006.56 1006.80 1007.33 1007.96 1008.54 1008.96 1009.15 1009.12 1008.94 1008.69 1008.47 1008.37 1008.42 1008.63 1008.96 1009.36 1009.77 1010.13 1010.42 1010.64 1010.81 1010.98 1011.18 1011.46
1013.37 1013.16 1013.03 1013.10 1013.45 1014.12 1015.05 1016.11 1017.13 1017.90 1018.23 1018.00 1017.16 1015.78 1013.98 1012.00 1010.06 1008.40 1007.18 1006.48 1006.32 1006.59 1007.15 1007.83 1008.46 1008.92 1009.14 1009.14 1008.95 1008.69 1008.44 1008.30 1008.31 1008.49 1008.82 1009.25 1009.70 1010.13 1010.50 1010.79 1011.02 1011.23 1011.45 1011.73
1013.11 1012.96 1012.90 1013.05 1013.46 1014.16 1015.08 1016.11 1017.06 1017.74 1017.98 1017.68 1016.79 1015.37 1013.58 1011.61 1009.71 1008.09 1006.90 1006.25 1006.10 1006.40 1006.98 1007.69 1008.34 1008.83 1009.09 1009.11 1008.95 1008.69 1008.44 1008.27 1008.27 1008.43 1008.75 1009.18 1009.66 1010.13 1010.55 1010.91 1011.20 1011.45 1011.69 1011.96
1012.87 1012.82 1012.86 1013.07 1013.50 1014.17 1015.01 1015.91 1016.71 1017.24 1017.35 1016.95 1016.02 1014.62 1012.89 1011.01 1009.22 1007.70 1006.61 1006.02 1005.91 1006.22 1006.80 1007.51 1008.17 1008.67 1008.96 1009.02 1008.90 1008.68 1008.45 1008.30 1008.29 1008.44 1008.75 1009.17 1009.66 1010.15 1010.61 1011.00 1011.33 1011.61 1011.88 1012.16
1012.61 1012.70 1012.84 1013.10 1013.53 1014.11 1014.80 1015.51 1016.10 1016.42 1016.37 1015.88 1014.93 1013.58 1011.97 1010.25 1008.63 1007.28 1006.31 1005.80 1005.74 1006.05 1006.62 1007.29 1007.93 1008.44 1008.75 1008.86 1008.80 1008.63 1008.46 1008.35 1008.36 1008.52 1008.82 1009.23 1009.71 1010.20 1010.66 1011.08 1011.43 1011.75 1012.03 1012.32
1012.35 1012.58 1012.83 1013.13 1013.51 1013.97 1014.47 1014.94 1015.27 1015.37 1015.16 1014.58 1013.63 1012.38 1010.93 1009.42 1008.02 1006.86 1006.05 1005.64 1005.62 1005.92 1006.44 1007.06 1007.66 1008.15 1008.48 1008.63 1008.64 1008.56 1008.46 1008.41 1008.46 1008.64 1008.94 1009.34 1009.80 1010.28 1010.74 1011.16 1011.53 1011.86 1012.16 1012.46
1012.11 1012.47 1012.80 1013.11 1013.43 1013.74 1014.02 1014.24 1014.31 1014.19 1013.81 1013.16 1012.25 1011.12 1009.86 1008.60 1007.44 1006.51 1005.86 1005.55 1005.55 1005.83 1006.29 1006.83 1007.37 1007.83 1008.16 1008.36 1008.44 1008.45 1008.45 1008.48 1008.59 1008.80 1009.10 1009.48 1009.92 1010.37 1010.82 1011.24 1011.62 1011.96 1012.28 1012.60
1011.92 1012.38 1012.76 1013.05 1013.28 1013.43 1013.50 1013.46 1013.29 1012.96 1012.45 1011.75 1010.89 1009.91 1008.86 1007.85 1006.95 1006.23 1005.74 1005.52 1005.55 1005.78 1006.16 1006.62 1007.09 1007.50 1007.83 1008.07 1008.22 1008.33 1008.42 1008.54 1008.71 1008.96 1009.27 1009.64 1010.05 1010.48 1010.91 1011.31 1011.70 1012.06 1012.40 1012.73
1011.81 1012.30 1012.68 1012.94 1013.06 1013.04 1012.91 1012.64 1012.26 1011.76 1011.14 1010.43 1009.64 1008.80 1007.97 1007.19 1006.53 1006.01 1005.67 1005.53 1005.56 1005.75 1006.05 1006.41 1006.80 1007.16 1007.49 1007.76 1007.98 1008.18 1008.37 1008.57 1008.81 1009.09 1009.41 1009.77 1010.16 1010.56 1010.97 1011.37 1011.76 1012.13 1012.49 1012.83
1011.77 1012.23 1012.57 1012.74 1012.74 1012.57 1012.25 1011.80 1011.25 1010.61 1009.93 1009.22 1008.50 1007.81 1007.18 1006.61 1006.15 1005.81 1005.59 1005.50 1005.54 1005.67 1005.90 1006.18 1006.49 1006.81 1007.13 1007.43 1007.72 1008.00 1008.27 1008.55 1008.85 1009.16 1009.49 1009.83 1010.20 1010.58 1010.97 1011.36 1011.76 1012.14 1012.52 1012.87
1011.75 1012.13 1012.37 1012.43 1012.31 1012.00 1011.53 1010.94 1010.26 1009.54 1008.82 1008.12 1007.49 1006.93 1006.45 1006.06 1005.76 1005.55 1005.43 1005.38 1005.40 1005.50 1005.65 1005.86 1006.12 1006.41 1006.73 1007.06 1007.41 1007.76 1008.11 1008.46 1008.80 1009.13 1009.46 1009.80 1010.15 1010.50 1010.88 1011.27 1011.66 1012.06 1012.45 1012.81
1011.70 1011.95 1012.06 1012.00 1011.75 1011.32 1010.74 1010.05 1009.29 1008.53 1007.80 1007.14 1006.58 1006.12 1005.76 1005.50 1005.31 1005.19 1005.12 1005.09 1005.11 1005.17 1005.27 1005.44 1005.66 1005.94 1006.27 1006.64 1007.04 1007.46 1007.87 1008.27 1008.64 1008.99 1009.33 1009.65 1009.97 1010.31 1010.67 1011.05 1011.45 1011.85 1012.24 1012.61
1011.57 1011.66 1011.62 1011.43 1011.07 1010.55 1009.90 1009.15 1008.37 1007.59 1006.88 1006.26 1005.76 1005.37 1005.10 1004.91 1004.79 1004.72 1004.67 1004.65 1004.65 1004.68 1004.75 1004.89 1005.10 1005.38 1005.73 1006.15 1006.60 1007.07 1007.53 1007.97 1008.37 1008.73 1009.06 1009.37 1009.68 1009.99 1010.33 1010.70 1011.09 1011.50 1011.89 1012.26
1011.32 1011.25 1011.07 1010.77 1010.33 1009.75 1009.06 1008.31 1007.53 1006.78 1006.11 1005.53 1005.07 1004.73 1004.50 1004.35 1004.25 1004.18 1004.13 1004.09 1004.06 1004.06 1004.12 1004.24 1004.45 1004.75 1005.13 1005.58 1006.08 1006.59 1007.10 1007.57 1007.99 1008.36 1008.69 1008.98 1009.27 1009.57 1009.89 1010.24 1010.62 1011.01 1011.39 1011.75
1010.96 1010.76 1010.47 1010.09 1009.59 1009.00 1008.32 1007.59 1006.86 1006.16 1005.53 1005.00 1004.58 1004.26 1004.03 1003.87 1003.76 1003.66 1003.57 1003.49 1003.43 1003.40 1003.44 1003.55 1003.76 1004.07 1004.47 1004.96 1005.49 1006.04 1006.57 1007.07 1007.51 1007.88 1008.21 1008.50 1008.77 1009.05 1009.35 1009.68 1010.04 1010.41 1010.78 1011.11
1010.55 1010.25 1009.89 1009.47 1008.96 1008.38 1007.75 1007.08 1006.42 1005.79 1005.22 1004.73 1004.33 1004.02 1003.77 1003.58 1003.42 1003.26 1003.12 1002.98 1002.87 1002.80 1002.79 1002.88 1003.08 1003.39 1003.80 1004.30 1004.84 1005.41 1005.97 1006.48 1006.93 1007.32 1007.65 1007.94 1008.21 1008.48 1008.76 1009.07 1009.40 1009.74 1010.08 1010.39
1010.14 1009.81 1009.43 1009.01 1008.53 1008.00 1007.44 1006.85 1006.27 1005.71 1005.21 1004.76 1004.38 1004.06 1003.78 1003.53 1003.30 1003.07 1002.85 1002.63 1002.45 1002.32 1002.26 1002.31 1002.47 1002.75 1003.14 1003.62 1004.16 1004.72 1005.28 1005.80 1006.27 1006.68 1007.02 1007.33 1007.60 1007.87 1008.14 1008.42 1008.73 1009.04 1009.35 1009.63
1009.84 1009.52 1009.17 1008.78 1008.36 1007.90 1007.42 1006.92 1006.42 1005.94 1005.50 1005.09 1004.72 1004.38 1004.06 1003.75 1003.44 1003.13 1002.81 1002.51 1002.23 1002.02 1001.88 1001.86 1001.95 1002.17 1002.50 1002.94 1003.44 1003.97 1004.52 1005.04 1005.52 1005.94 1006.31 1006.64 1006.93 1007.21 1007.48 1007.76 1008.05 1008.33 1008.61 1008.87
1009.68 1009.42 1009.13 1008.81 1008.46 1008.08 1007.68 1007.26 1006.84 1006.43 1006.03 1005.65 1005.28 1004.92 1004.56 1004.19 1003.80 1003.40 1002.99 1002.59 1002.22 1001.90 1001.66 1001.54 1001.53 1001.65 1001.89 1002.24 1002.67 1003.15 1003.66 1004.17 1004.65 1005.10 1005.50 1005.86 1006.19 1006.50 1006.79 1007.08 1007.36 1007.63 1007.88 1008.12
Thickness
5747 5735 5728 5733 5736 5737 5733 5727 5724 5733 5745 5740 5736 5738 5745 5748 5747 5745 5744 5743 5742 5742 5743 5741 5739 5737 5734 5731 5728 5725 5722 5720 5717 5713 5709 5705 5702 5699 5697 5695 5694 5692 5690 5688
5733 5729 5743 5746 5742 5737 5731 5723 5723 5734 5744 5739 5732 5733 5742 5744 5745 5745 5743 5741 5740 5738 5737 5737 5736 5734 5730 5728 5726 5722 5720 5717 5713 5710 5706 5703 5699 5696 5694 5692 5690 5689 5686 5684
5730 5740 5751 5745 5739 5733 5729 5723 5725 5727 5734 5736 5729 5725 5732 5740 5744 5744 5742 5741 5739 5737 5734 5734 5732 5730 5728 5725 5722 5721 5717 5714 5711 5707 5703 5699 5695 5692 5689 5687 5686 5685 5683 5681
5734 5745 5746 5741 5737 5735 5723 5738 5735 5730 5718 5710 5719 5700 5722 5730 5733 5737 5737 5736 5736 5736 5734 5731 5729 5727 5725 5723 5721 5718 5715 5711 5708 5704 5699 5695 5690 5686 5685 5683 5682 5681 5680 5678
5735 5744 5742 5738 5742 5741 5735 5743 5735 5728 5716 5706 5709 5700 5710 5724 5724 5730 5734 5736 5736 5735 5732 5729 5727 5725 5723 5721 5717 5714 5710 5707 5703 5700 5696 5691 5687 5684 5682 5680 5678 5676 5675 5674
5742 5751 5750 5748 5751 5750 5744 5733 5724 5712 5704 5693 5704 5697 5703 5714 5724 5731 5734 5736 5735 5733 5730 5727 5725 5722 5719 5717 5713 5709 5706 5702 5699 5695 5692 5688 5684 5681 5678 5676 5673 5672 5670 5669
5733 5742 5751 5754 5742 5742 5735 5713 5693 5691 5683 5687 5705 5700 5705 5727 5734 5735 5735 5734 5733 5730 5726 5722 5719 5717 5715 5711 5708 5705 5702 5697 5695 5691 5688 5685 5682 5679 5676 5673 5670 5667 5665 5664
5716 5719 5743 5750 5743 5732 5728 5717 5693 5682 5678 5686 5700 5697 5714 5732 5736 5737 5735 5732 5729 5725 5722 5719 5717 5714 5711 5708 5705 5702 5698 5694 5691 5688 5684 5682 5679 5676 5673 5671 5667 5664 5662 5660
5713 5719 5747 5753 5754 5742 5724 5714 5715 5693 5687 5681 5689 5703 5719 5731 5729 5729 5729 5727 5723 5721 5718 5716 5713 5710 5707 5704 5702 5699 5695 5692 5689 5685 5682 5678 5676 5673 5670 5668 5664 5661 5659 5657
5727 5718 5737 5747 5748 5742 5735 5720 5701 5690 5677 5674 5687 5694 5701 5717 5720 5721 5721 5719 5718 5716 5713 5711 5709 5706 5704 5701 5699 5696 5693 5690 5686 5683 5679 5676 5673 5670 5667 5664 5660 5658 5656 5654
5730 5715 5723 5732 5730 5726 5722 5715 5702 5688 5686 5675 5673 5689 5718 5717 5719 5717 5717 5716 5713 5710 5708 5706 5705 5704 5701 5698 5696 5693 5690 5686 5683 5680 5676 5672 5669 5667 5663 5660 5658 5655 5653 5650
5726 5711 5705 5719 5735 5739 5730 5718 5704 5693 5686 5680 5676 5688 5722 5719 5718 5716 5714 5713 5710 5708 5705 5703 5701 5699 5697 5694 5692 5690 5686 5683 5680 5676 5673 5670 5666 5664 5660 5657 5655 5652 5649 5647
5723 5707 5694 5700 5711 5723 5721 5716 5710 5698 5685 5675 5674 5691 5717 5716 5714 5713 5710 5708 5706 5703 5701 5699 5697 5694 5692 5690 5688 5685 5682 5680 5677 5674 5669 5666 5662 5659 5656 5653 5651 5649 5646 5644
5728 5705 5697 5693 5699 5710 5712 5712 5707 5699 5683 5680 5685 5695 5706 5706 5706 5706 5705 5703 5701 5699 5697 5694 5691 5689 5688 5686 5684 5682 5679 5677 5674 5670 5665 5661 5658 5655 5652 5650 5648 5645 5643 5640
5720 5703 5705 5708 5715 5714 5712 5711 5707 5703 5697 5690 5695 5696 5700 5702 5703 5703 5702 5700 5697 5694 5692 5690 5687 5685 5683 5681 5679 5678 5676 5673 5670 5666 5662 5658 5655 5651 5648 5646 5644 5642 5639 5637
5707 5701 5702 5704 5712 5710 5705 5708 5707 5704 5701 5697 5697 5695 5702 5702 5701 5699 5697 5695 5693 5691 5689 5687 5685 5681 5679 5678 5676 5674 5672 5669 5666 5662 5658 5655 5651 5648 5645 5642 5640 5637 5635 5633
5695 5693 5688 5687 5700 5702 5691 5699 5701 5699 5700 5697 5691 5695 5697 5695 5695 5694 5693 5692 5689 5687 5686 5684 5682 5679 5676 5674 5673 5670 5668 5665 5662 5658 5655 5652 5648 5644 5641 5639 5636 5634 5631 5629
5688 5683 5675 5677 5687 5676 5688 5705 5705 5698 5696 5695 5695 5694 5693 5693 5692 5692 5691 5688 5686 5684 5682 5680 5678 5676 5674 5671 5670 5667 5664 5661 5658 5654 5651 5648 5645 5642 5638 5635 5632 5630 5627 5625
5687 5680 5669 5664 5666 5672 5688 5697 5696 5691 5687 5690 5688 5687 5687 5687 5686 5683 5686 5686 5684 5681 5679 5676 5674 5673 5671 5669 5666 5664 5660 5657 5654 5651 5648 5645 5643 5639 5635 5631 5628 5626 5624 5621
5678 5676 5666 5659 5659 5659 5677 5693 5697 5690 5677 5685 5684 5681 5680 5680 5672 5674 5681 5681 5679 5677 5674 5672 5671 5669 5667 5665 5662 5659 5656 5653 5650 5648 5645 5643 5640 5636 5632 5628 5625 5623 5620 5618
5662 5660 5655 5652 5653 5661 5678 5687 5690 5670 5671 5683 5681 5678 5675 5674 5674 5676 5677 5675 5674 5671 5670 5668 5666 5664 5662 5660 5657 5654 5651 5648 5647 5645 5642 5640 5636 5633 5629 5625 5622 5619 5617 5614
5651 5649 5647 5644 5645 5653 5676 5678 5672 5671 5678 5678 5677 5675 5672 5671 5671 5671 5670 5669 5667 5665 5664 5663 5660 5658 5657 5655 5652 5649 5646 5645 5643 5640 5638 5635 5632 5629 5626 5621 5618 5615 5612 5609
5644 5646 5645 5647 5650 5661 5667 5669 5673 5672 5671 5672 5671 5670 5668 5665 5664 5664 5662 5661 5660 5659 5657 5656 5654 5652 5651 5650 5647 5644 5643 5640 5638 5635 5632 5630 5627 5624 5620 5617 5613 5610 5607 5604
5639 5642 5640 5641 5650 5656 5660 5664 5666 5667 5668 5669 5668 5665 5664 5660 5658 5657 5655 5653 5653 5652 5651 5650 5648 5646 5645 5644 5642 5641 5639 5636 5633 5629 5626 5624 5621 5618 5615 5612 5609 5606 5603 5600
5630 5632 5630 5633 5642 5648 5654 5656 5658 5660 5662 5662 5661 5659 5657 5655 5652 5650 5648 5647 5646 5645 5644 5643 5642 5641 5640 5639 5637 5636 5634 5631 5627 5624 5621 5618 5615 5612 5609 5607 5603 5601 5598 5595
5621 5623 5624 5626 5635 5636 5640 5648 5652 5652 5653 5653 5653 5651 5650 5649 5646 5644 5642 5641 5640 5639 5638 5636 5636 5635 5635 5634 5632 5631 5628 5626 5622 5619 5616 5613 5609 5606 5604 5601 5598 5596 5593 5591